Вернуться в каталог

STARLINK-37122

АктивенСвязьSSO
NORAD 68678·PAYLOAD·🇺🇸 United States

Запущен Apr 11, 2026 с Vandenberg Space Force Base

Loading…

Ближайшие Пролёты (ближайшие 24 часа)

TLE

СвежийSource: CelesTrak SupGP

Эпоха: Sep 15, 2026, 04:05 UTC

1 68678C 26077S   26258.17062500 -.00010213  00000+0 -31692-3 0  2581
2 68678  97.2847 128.1665 0001503  96.7943  56.0079 15.33455676    13

Отслеживайте STARLINK-37122 в реальном времени с AllMySat

Download on the App Store